Location: Home
(42.5358°N, 72.7383°W)
Time: 15:23:48
(UTC-05:00)

Vanguard 1 - Pass Details

Date: 01 December 2021
Orbit: 652 x 3830 km, 34.2° (Epoch: 19 January)

Event Time Altitude Azimuth Distance (km) Brightness Sun altitude
Rises 20:50:19 0° 186° (S) 6,727 14.3 -49.2°
Enters shadow 20:55:11 - 175° (S) 6,258 14.0 -50.0°
Reaches altitude 10° 20:56:18 10° 172° (S) 6,172 - -50.2°
Maximum altitude 21:09:55 22° 130° (SE) 5,843 - -52.6°
Drops below altitude 10° 21:24:45 10° 91° (E) 6,865 - -55.1°
Sets 21:31:47 0° 78° (ENE) 7,669 - -56.3°
